• In Hungary
  • List of Countries
  • For 7 days
  • Water Temperature
  • Satellite Maps
  • Weather Map
  • News
  • Weather Widgets
  • user-avatar
    Login

    Hourly Weather Byrdowo

    Today, 25 September, Tuesday

    Time Temperature Precipitation Wind Pressure Humidity
    00:00 +3°C° 0 mm 4 mps 729 mmHg 81%
    01:00 +4°C° 0 mm 2 mps 729 mmHg 85%
    02:00 +3°C° 0 mm 3 mps 730 mmHg 86%
    03:00 +3°C° 0 mm 3 mps 730 mmHg 86%
    04:00 +3°C° 0 mm 3 mps 730 mmHg 87%
    05:00 +3°C° 0.1 mm 3 mps 731 mmHg 85%
    06:00 +3°C° 0.1 mm 4 mps 731 mmHg 84%
    07:00 +3°C° 0 mm 4 mps 732 mmHg 82%
    08:00 +4°C° 0 mm 4 mps 732 mmHg 78%
    09:00 +5°C° 0 mm 4 mps 733 mmHg 75%
    10:00 +5°C° 0 mm 4 mps 733 mmHg 71%
    11:00 +6°C° 0.1 mm 4 mps 733 mmHg 66%
    12:00 +7°C° 0.1 mm 4 mps 734 mmHg 61%
    13:00 +8°C° 0.1 mm 4 mps 734 mmHg 57%
    14:00 +8°C° 0.1 mm 4 mps 734 mmHg 57%
    15:00 +8°C° 0.1 mm 4 mps 734 mmHg 58%
    16:00 +8°C° 0.1 mm 4 mps 734 mmHg 58%
    17:00 +8°C° 0 mm 3 mps 734 mmHg 64%
    18:00 +6°C° 0 mm 2 mps 735 mmHg 69%
    19:00 +5°C° 0 mm 2 mps 735 mmHg 75%
    20:00 +6°C° 0 mm 1 mps 735 mmHg 77%
    21:00 +5°C° 0 mm 1 mps 736 mmHg 79%
    22:00 +5°C° 0 mm 1 mps 736 mmHg 80%
    23:00 +4°C° 0 mm 1 mps 737 mmHg 82%

    Tomorrow, 26 September, Wednesday

    Time Temperature Precipitation Wind Pressure Humidity
    00:00 +4°C° 0 mm 1 mps 737 mmHg 83%
    01:00 +4°C° 0 mm 1 mps 737 mmHg 84%
    02:00 +4°C° 0 mm 1 mps 737 mmHg 85%
    03:00 +3°C° 0 mm 1 mps 737 mmHg 86%
    04:00 +3°C° 0 mm 1 mps 737 mmHg 87%
    05:00 +4°C° 0 mm 1 mps 737 mmHg 84%
    06:00 +4°C° 0 mm 2 mps 737 mmHg 81%
    07:00 +4°C° 0 mm 2 mps 737 mmHg 78%
    08:00 +7°C° 0 mm 2 mps 737 mmHg 69%
    09:00 +9°C° 0 mm 2 mps 737 mmHg 60%
    10:00 +12°C° 0 mm 2 mps 737 mmHg 51%
    11:00 +12°C° 0 mm 3 mps 737 mmHg 48%
    12:00 +13°C° 0 mm 3 mps 736 mmHg 45%
    13:00 +13°C° 0 mm 4 mps 736 mmHg 42%
    14:00 +13°C° 0 mm 4 mps 735 mmHg 44%
    15:00 +13°C° 0 mm 3 mps 735 mmHg 47%
    16:00 +13°C° 0 mm 3 mps 734 mmHg 49%
    17:00 +11°C° 0 mm 3 mps 734 mmHg 54%
    18:00 +10°C° 0 mm 3 mps 734 mmHg 58%
    19:00 +8°C° 0 mm 3 mps 734 mmHg 62%
    20:00 +8°C° 0 mm 3 mps 734 mmHg 63%
    21:00 +7°C° 0 mm 3 mps 734 mmHg 63%
    22:00 +7°C° 0 mm 3 mps 733 mmHg 63%
    23:00 +7°C° 0 mm 3 mps 733 mmHg 61%

    Day after tomorrow, 27 September, Thursday

    Time Temperature Precipitation Wind Pressure Humidity
    00:00 +7°C° 0 mm 3 mps 733 mmHg 59%
    01:00 +7°C° 0 mm 3 mps 733 mmHg 57%
    02:00 +7°C° 0 mm 3 mps 733 mmHg 57%
    03:00 +7°C° 0 mm 3 mps 732 mmHg 58%
    04:00 +5°C° 0 mm 3 mps 732 mmHg 58%
    05:00 +7°C° 0 mm 3 mps 732 mmHg 56%
    06:00 +8°C° 0 mm 3 mps 732 mmHg 54%
    07:00 +9°C° 0 mm 3 mps 732 mmHg 52%
    08:00 +11°C° 0 mm 3 mps 732 mmHg 49%
    09:00 +13°C° 0 mm 3 mps 732 mmHg 45%
    10:00 +17°C° 0 mm 3 mps 732 mmHg 41%
    11:00 +18°C° 0 mm 3 mps 732 mmHg 43%
    12:00 +19°C° 0 mm 3 mps 732 mmHg 44%
    13:00 +20°C° 0 mm 3 mps 732 mmHg 45%
    14:00 +19°C° 0 mm 3 mps 731 mmHg 49%
    15:00 +19°C° 0 mm 3 mps 731 mmHg 52%
    16:00 +19°C° 0 mm 2 mps 731 mmHg 55%
    17:00 +17°C° 0 mm 2 mps 730 mmHg 60%
    18:00 +15°C° 0 mm 2 mps 730 mmHg 65%
    19:00 +14°C° 0 mm 2 mps 730 mmHg 70%
    20:00 +13°C° 0 mm 2 mps 730 mmHg 71%
    21:00 +13°C° 0 mm 2 mps 730 mmHg 71%
    22:00 +12°C° 0 mm 2 mps 729 mmHg 72%
    23:00 +12°C° 0 mm 2 mps 729 mmHg 72%

    28 September, Friday

    Time Temperature Precipitation Wind Pressure Humidity
    00:00 +12°C° 0 mm 2 mps 728 mmHg 73%
    01:00 +12°C° 0 mm 2 mps 728 mmHg 74%
    02:00 +10°C° 0 mm 2 mps 727 mmHg 74%
    03:00 +10°C° 0 mm 2 mps 727 mmHg 74%
    04:00 +10°C° 0 mm 2 mps 726 mmHg 75%
    05:00 +11°C° 0 mm 3 mps 726 mmHg 72%
    06:00 +11°C° 0 mm 3 mps 726 mmHg 70%
    07:00 +12°C° 0 mm 3 mps 726 mmHg 68%
    08:00 +14°C° 0 mm 3 mps 726 mmHg 60%
    09:00 +17°C° 0 mm 4 mps 726 mmHg 51%
    10:00 +19°C° 0 mm 4 mps 726 mmHg 43%
    11:00 +20°C° 0 mm 4 mps 725 mmHg 41%
    12:00 +20°C° 0 mm 4 mps 725 mmHg 39%
    13:00 +21°C° 0 mm 4 mps 725 mmHg 37%
    14:00 +20°C° 0 mm 4 mps 724 mmHg 41%
    15:00 +20°C° 0 mm 3 mps 724 mmHg 45%
    16:00 +19°C° 0 mm 3 mps 724 mmHg 48%
    17:00 +17°C° 0 mm 2 mps 724 mmHg 55%
    18:00 +15°C° 0 mm 2 mps 724 mmHg 62%
    19:00 +13°C° 0 mm 2 mps 724 mmHg 68%
    20:00 +12°C° 0 mm 2 mps 724 mmHg 73%
    21:00 +12°C° 0 mm 1 mps 724 mmHg 77%
    22:00 +11°C° 0 mm 1 mps 725 mmHg 81%
    23:00 +11°C° 0 mm 1 mps 725 mmHg 81%

    29 September, Saturday

    Time Temperature Precipitation Wind Pressure Humidity
    00:00 +10°C° 0 mm 2 mps 725 mmHg 81%
    01:00 +10°C° 0 mm 2 mps 725 mmHg 81%
    02:00 +10°C° 0 mm 2 mps 725 mmHg 81%
    03:00 +9°C° 0 mm 2 mps 725 mmHg 81%
    04:00 +9°C° 0 mm 2 mps 726 mmHg 81%
    05:00 +9°C° 0 mm 2 mps 726 mmHg 81%
    06:00 +8°C° 0 mm 2 mps 726 mmHg 81%
    07:00 +8°C° 0 mm 3 mps 727 mmHg 81%
    08:00 +9°C° 0.1 mm 3 mps 727 mmHg 75%
    09:00 +10°C° 0.1 mm 3 mps 728 mmHg 70%
    10:00 +11°C° 0.1 mm 4 mps 728 mmHg 64%
    11:00 +11°C° 0.1 mm 4 mps 728 mmHg 59%
    12:00 +12°C° 0.1 mm 4 mps 728 mmHg 55%
    13:00 +12°C° 0.1 mm 4 mps 728 mmHg 50%
    14:00 +12°C° 0 mm 4 mps 728 mmHg 50%
    15:00 +12°C° 0 mm 4 mps 728 mmHg 49%
    16:00 +12°C° 0 mm 4 mps 728 mmHg 49%
    17:00 +10°C° 0 mm 3 mps 729 mmHg 55%
    18:00 +9°C° 0 mm 3 mps 729 mmHg 61%
    19:00 +7°C° 0 mm 2 mps 729 mmHg 68%
    20:00 +7°C° 0 mm 2 mps 729 mmHg 72%
    21:00 +6°C° 0 mm 2 mps 730 mmHg 76%
    22:00 +6°C° 0 mm 2 mps 730 mmHg 80%
    23:00 +5°C° 0 mm 2 mps 730 mmHg 81%

    30 September, Sunday

    Time Temperature Precipitation Wind Pressure Humidity
    00:00 +5°C° 0 mm 2 mps 729 mmHg 83%
    01:00 +4°C° 0 mm 2 mps 729 mmHg 84%
    02:00 +4°C° 0 mm 2 mps 729 mmHg 85%
    03:00 +4°C° 0 mm 2 mps 729 mmHg 87%
    04:00 +3°C° 0 mm 2 mps 728 mmHg 88%
    05:00 +4°C° 0 mm 2 mps 728 mmHg 86%
    06:00 +4°C° 0 mm 2 mps 728 mmHg 84%
    07:00 +5°C° 0 mm 2 mps 728 mmHg 82%
    08:00 +7°C° 0 mm 2 mps 728 mmHg 72%
    09:00 +9°C° 0 mm 2 mps 728 mmHg 61%
    10:00 +12°C° 0 mm 3 mps 728 mmHg 51%
    11:00 +13°C° 0 mm 3 mps 727 mmHg 48%
    12:00 +14°C° 0 mm 3 mps 727 mmHg 45%
    13:00 +16°C° 0 mm 2 mps 726 mmHg 42%
    14:00 +16°C° 0 mm 2 mps 726 mmHg 45%
    15:00 +15°C° 0 mm 2 mps 725 mmHg 47%
    16:00 +15°C° 0 mm 2 mps 725 mmHg 50%
    17:00 +13°C° 0 mm 2 mps 725 mmHg 58%
    18:00 +11°C° 0 mm 1 mps 724 mmHg 65%
    19:00 +9°C° 0 mm 1 mps 724 mmHg 72%
    20:00 +9°C° 0 mm 1 mps 724 mmHg 75%
    21:00 +8°C° 0 mm 1 mps 724 mmHg 78%
    22:00 +8°C° 0 mm 1 mps 724 mmHg 80%
    23:00 +8°C° 0 mm 1 mps 723 mmHg 81%
    Show more